JAL2441 RJOO-RJFM

Flight info

Callsign JAL2441
Flight time 0h 55m
Altitude 28000
Route TIGER MAIKO AWAJI Y232 SIROK Y402 RYUGU
Aircraft E190/M-SDE3GILORVW/S

Departure

Time 2026-04-19 06:26
Airport Osaka Itami International Airport (RJOO)

Arrival

Time 2026-04-19 07:21
Airport Miyazaki Airport (RJFM)
Time Latitude Longitude Altitude Speed Heading
2026-04-19 06:05 34.79213 135.43649 47 ft 0 kts 177°
2026-04-19 06:19 34.79208 135.43649 45 ft 2 kts 180°
2026-04-19 06:19 34.79183 135.43634 44 ft 6 kts 213°
2026-04-19 06:20 34.79140 135.43595 45 ft 9 kts 211°
2026-04-19 06:20 34.79098 135.43590 47 ft 10 kts 171°
2026-04-19 06:20 34.79021 135.43662 46 ft 12 kts 134°
2026-04-19 06:20 34.78958 135.43739 47 ft 14 kts 136°
2026-04-19 06:21 34.78886 135.43825 47 ft 15 kts 135°
2026-04-19 06:21 34.78807 135.43921 45 ft 17 kts 135°
2026-04-19 06:21 34.78721 135.44026 45 ft 18 kts 135°
2026-04-19 06:21 34.78627 135.44139 47 ft 19 kts 134°
2026-04-19 06:22 34.78562 135.44220 46 ft 20 kts 134°
2026-04-19 06:22 34.78475 135.44321 45 ft 15 kts 146°
2026-04-19 06:22 34.78374 135.44332 49 ft 15 kts 182°
2026-04-19 06:22 34.78264 135.44333 48 ft 17 kts 179°
2026-04-19 06:23 34.78150 135.44365 47 ft 18 kts 140°
2026-04-19 06:23 34.78059 135.44478 45 ft 19 kts 135°
2026-04-19 06:23 34.77960 135.44596 45 ft 21 kts 135°
2026-04-19 06:23 34.77856 135.44722 45 ft 22 kts 135°
2026-04-19 06:24 34.77746 135.44855 45 ft 23 kts 134°
2026-04-19 06:24 34.77611 135.44958 47 ft 23 kts 155°
2026-04-19 06:24 34.77496 135.45018 46 ft 14 kts 169°
2026-04-19 06:24 34.77436 135.44949 50 ft 13 kts 274°
2026-04-19 06:25 34.77494 135.44852 46 ft 18 kts 314°
2026-04-19 06:25 34.77716 135.44584 47 ft 79 kts 315°
2026-04-19 06:25 34.78259 135.43920 49 ft 141 kts 316°
2026-04-19 06:25 34.79065 135.42943 248 ft 178 kts 313°
2026-04-19 06:26 34.79991 135.41822 878 ft 196 kts 313°
2026-04-19 06:26 34.80655 135.40337 1540 ft 210 kts 279°
2026-04-19 06:26 34.80400 135.38564 2189 ft 222 kts 240°
2026-04-19 06:26 34.79268 135.37295 2886 ft 228 kts 203°
2026-04-19 06:27 34.77711 135.37089 3660 ft 228 kts 166°
2026-04-19 06:27 34.76340 135.37697 4941 ft 198 kts 157°
2026-04-19 06:27 34.75045 135.38319 5605 ft 201 kts 160°
2026-04-19 06:27 34.73652 135.38341 6249 ft 203 kts 193°
2026-04-19 06:28 34.72310 135.37882 7012 ft 196 kts 192°
2026-04-19 06:28 34.71017 135.37435 7734 ft 190 kts 193°
2026-04-19 06:28 34.69760 135.36999 8333 ft 190 kts 193°
2026-04-19 06:28 34.68622 135.36191 8883 ft 195 kts 229°
2026-04-19 06:29 34.68028 135.34734 9513 ft 192 kts 244°
2026-04-19 06:29 34.67461 135.33261 10013 ft 194 kts 242°
2026-04-19 06:29 34.66878 135.31783 10508 ft 192 kts 242°
2026-04-19 06:29 34.66301 135.30235 10559 ft 223 kts 250°
2026-04-19 06:30 34.66179 135.28241 10690 ft 249 kts 279°
2026-04-19 06:30 34.66472 135.26197 11538 ft 237 kts 276°
2026-04-19 06:30 34.66504 135.24230 12267 ft 236 kts 261°
2026-04-19 06:30 34.66333 135.22105 12185 ft 274 kts 269°
2026-04-19 06:31 34.66458 135.19682 12092 ft 310 kts 274°
2026-04-19 06:31 34.66630 135.17042 12406 ft 308 kts 268°
2026-04-19 06:31 34.66158 135.14500 12480 ft 310 kts 246°
2026-04-19 06:31 34.65269 135.12147 13135 ft 306 kts 244°
2026-04-19 06:32 34.64430 135.09753 13862 ft 310 kts 246°
2026-04-19 06:32 34.63639 135.07294 14517 ft 314 kts 247°
2026-04-19 06:32 34.62858 135.04815 15219 ft 315 kts 247°
2026-04-19 06:32 34.62072 135.02315 15914 ft 318 kts 247°
2026-04-19 06:33 34.61163 134.99857 16365 ft 326 kts 235°
2026-04-19 06:33 34.59531 134.97896 16545 ft 338 kts 214°
2026-04-19 06:33 34.57559 134.96290 16818 ft 352 kts 212°
2026-04-19 06:33 34.55484 134.94615 17147 ft 363 kts 213°
2026-04-19 06:34 34.53381 134.92894 17743 ft 366 kts 213°
2026-04-19 06:34 34.51279 134.91154 18425 ft 365 kts 214°
2026-04-19 06:34 34.49175 134.89412 19012 ft 366 kts 214°
2026-04-19 06:34 34.47066 134.87668 19555 ft 368 kts 214°
2026-04-19 06:35 34.44940 134.85914 20139 ft 370 kts 214°
2026-04-19 06:35 34.42803 134.84155 20719 ft 372 kts 214°
2026-04-19 06:35 34.40655 134.82392 21264 ft 374 kts 214°
2026-04-19 06:35 34.38485 134.80616 21786 ft 376 kts 215°
2026-04-19 06:36 34.36311 134.78838 22301 ft 378 kts 215°
2026-04-19 06:36 34.34122 134.77058 22777 ft 380 kts 215°
2026-04-19 06:36 34.31944 134.75287 23185 ft 383 kts 215°
2026-04-19 06:36 34.29717 134.73482 23597 ft 386 kts 215°
2026-04-19 06:37 34.27485 134.71656 23944 ft 387 kts 218°
2026-04-19 06:37 34.25541 134.69422 24292 ft 387 kts 230°
2026-04-19 06:37 34.23802 134.66927 24681 ft 387 kts 230°
2026-04-19 06:37 34.22064 134.64437 25040 ft 388 kts 230°
2026-04-19 06:38 34.20325 134.61935 25412 ft 389 kts 230°
2026-04-19 06:38 34.18582 134.59431 25760 ft 390 kts 230°
2026-04-19 06:38 34.16835 134.56919 26098 ft 391 kts 230°
2026-04-19 06:38 34.15083 134.54400 26433 ft 393 kts 231°
2026-04-19 06:39 34.13322 134.51872 26763 ft 394 kts 230°
2026-04-19 06:39 34.11558 134.49341 27072 ft 395 kts 231°
2026-04-19 06:39 34.09784 134.46795 27321 ft 396 kts 231°
2026-04-19 06:39 34.08031 134.44282 27544 ft 397 kts 231°
2026-04-19 06:40 34.06251 134.41729 27773 ft 398 kts 231°
2026-04-19 06:40 34.04468 134.39174 27950 ft 398 kts 231°
2026-04-19 06:40 34.00993 134.34196 28026 ft 390 kts 231°
2026-04-19 06:41 33.97505 134.29203 28068 ft 389 kts 231°
2026-04-19 06:41 33.94045 134.24256 28034 ft 386 kts 231°
2026-04-19 06:42 33.90572 134.19312 28007 ft 386 kts 231°
2026-04-19 06:42 33.87088 134.14375 27993 ft 387 kts 231°
2026-04-19 06:43 33.83608 134.09446 28023 ft 386 kts 231°
2026-04-19 06:43 33.80134 134.04527 28006 ft 386 kts 231°
2026-04-19 06:44 33.76664 133.99627 28002 ft 384 kts 231°
2026-04-19 06:44 33.73189 133.94722 28006 ft 384 kts 231°
2026-04-19 06:45 33.69747 133.89872 28012 ft 383 kts 231°
2026-04-19 06:45 33.66285 133.85002 27993 ft 382 kts 231°
2026-04-19 06:46 33.64557 133.82571 27995 ft 382 kts 231°
2026-04-19 06:46 33.62831 133.80147 27992 ft 382 kts 231°
2026-04-19 06:46 33.61103 133.77721 27990 ft 381 kts 231°
2026-04-19 06:46 33.59381 133.75306 27994 ft 381 kts 231°
2026-04-19 06:47 33.57682 133.72925 27992 ft 381 kts 231°
2026-04-19 06:47 33.55955 133.70506 27994 ft 380 kts 231°
2026-04-19 06:47 33.52261 133.65961 28004 ft 381 kts 225°
2026-04-19 06:48 33.48361 133.61664 27998 ft 380 kts 225°
2026-04-19 06:48 33.46412 133.59528 27992 ft 379 kts 225°
2026-04-19 06:48 33.44459 133.57395 27983 ft 379 kts 225°
2026-04-19 06:49 33.42510 133.55266 27992 ft 379 kts 225°
2026-04-19 06:49 33.40558 133.53136 27998 ft 378 kts 225°
2026-04-19 06:49 33.38638 133.51043 28000 ft 378 kts 225°
2026-04-19 06:49 33.36694 133.48923 28001 ft 378 kts 225°
2026-04-19 06:50 33.32809 133.44694 28001 ft 377 kts 225°
2026-04-19 06:50 33.28928 133.40475 28004 ft 377 kts 225°
2026-04-19 06:51 33.25051 133.36264 28004 ft 376 kts 225°
2026-04-19 06:51 33.21174 133.32058 28007 ft 376 kts 225°
2026-04-19 06:52 33.17298 133.27859 28007 ft 376 kts 225°
2026-04-19 06:52 33.13450 133.23695 28007 ft 375 kts 225°
2026-04-19 06:53 33.09575 133.19520 28012 ft 375 kts 224°
2026-04-19 06:53 33.05700 133.15360 28007 ft 374 kts 224°
2026-04-19 06:54 33.01837 133.11215 28006 ft 373 kts 224°
2026-04-19 06:54 32.97984 133.07087 28004 ft 372 kts 224°
2026-04-19 06:55 32.94131 133.02962 28008 ft 372 kts 224°
2026-04-19 06:55 32.90289 132.98855 28008 ft 371 kts 224°
2026-04-19 06:56 32.86474 132.94784 28007 ft 370 kts 224°
2026-04-19 06:56 32.84558 132.92739 27951 ft 371 kts 224°
2026-04-19 06:56 32.82635 132.90685 27635 ft 370 kts 224°
2026-04-19 06:57 32.80723 132.88639 27352 ft 371 kts 224°
2026-04-19 06:57 32.78795 132.86579 26792 ft 372 kts 224°
2026-04-19 06:57 32.76894 132.84548 26282 ft 369 kts 224°
2026-04-19 06:57 32.74978 132.82505 25807 ft 367 kts 224°
2026-04-19 06:58 32.73074 132.80473 25311 ft 367 kts 224°
2026-04-19 06:58 32.71170 132.78445 24829 ft 368 kts 224°
2026-04-19 06:58 32.69262 132.76411 24331 ft 369 kts 223°
2026-04-19 06:58 32.67347 132.74374 23835 ft 369 kts 223°
2026-04-19 06:59 32.65433 132.72337 23300 ft 370 kts 223°
2026-04-19 06:59 32.63525 132.70310 22854 ft 367 kts 223°
2026-04-19 06:59 32.61629 132.68295 22356 ft 365 kts 223°
2026-04-19 06:59 32.59741 132.66292 21878 ft 362 kts 223°
2026-04-19 07:00 32.57872 132.64307 21396 ft 360 kts 223°
2026-04-19 07:00 32.56038 132.62363 20930 ft 357 kts 223°
2026-04-19 07:00 32.54190 132.60404 20446 ft 355 kts 223°
2026-04-19 07:00 32.52358 132.58463 19976 ft 352 kts 223°
2026-04-19 07:01 32.50534 132.56531 19515 ft 350 kts 223°
2026-04-19 07:01 32.48723 132.54615 19063 ft 348 kts 223°
2026-04-19 07:01 32.46919 132.52707 18590 ft 347 kts 223°
2026-04-19 07:01 32.45117 132.50802 18106 ft 346 kts 223°
2026-04-19 07:02 32.43329 132.48914 17661 ft 343 kts 223°
2026-04-19 07:02 32.41553 132.47037 17130 ft 342 kts 223°
2026-04-19 07:02 32.39783 132.45170 16698 ft 338 kts 223°
2026-04-19 07:02 32.38032 132.43323 16247 ft 336 kts 223°
2026-04-19 07:03 32.36294 132.41490 15817 ft 334 kts 222°
2026-04-19 07:03 32.34588 132.39693 15376 ft 332 kts 222°
2026-04-19 07:03 32.32870 132.37883 14959 ft 329 kts 222°
2026-04-19 07:03 32.31408 132.35861 14605 ft 321 kts 239°
2026-04-19 07:04 32.30458 132.33525 14327 ft 309 kts 244°
2026-04-19 07:04 32.29577 132.31264 14120 ft 297 kts 243°
2026-04-19 07:04 32.28705 132.29090 13895 ft 287 kts 243°
2026-04-19 07:04 32.27853 132.26983 13665 ft 281 kts 243°
2026-04-19 07:05 32.27008 132.24902 13418 ft 281 kts 243°
2026-04-19 07:05 32.26158 132.22820 13172 ft 281 kts 243°
2026-04-19 07:05 32.25306 132.20740 12920 ft 282 kts 243°
2026-04-19 07:05 32.24450 132.18657 12662 ft 282 kts 243°
2026-04-19 07:06 32.23595 132.16576 12408 ft 281 kts 243°
2026-04-19 07:06 32.22738 132.14498 12154 ft 281 kts 243°
2026-04-19 07:06 32.21884 132.12428 11901 ft 280 kts 243°
2026-04-19 07:06 32.21030 132.10363 11661 ft 279 kts 243°
2026-04-19 07:07 32.20191 132.08337 11422 ft 278 kts 243°
2026-04-19 07:07 32.19340 132.06284 11174 ft 278 kts 243°
2026-04-19 07:07 32.18491 132.04241 10931 ft 277 kts 243°
2026-04-19 07:07 32.17646 132.02205 10696 ft 275 kts 243°
2026-04-19 07:08 32.16805 132.00183 10456 ft 274 kts 243°
2026-04-19 07:08 32.15966 131.98167 10221 ft 273 kts 243°
2026-04-19 07:08 32.15129 131.96161 9985 ft 272 kts 243°
2026-04-19 07:08 32.14297 131.94167 9739 ft 270 kts 243°
2026-04-19 07:09 32.13747 131.92849 9563 ft 270 kts 243°
2026-04-19 07:09 32.12637 131.90191 9208 ft 270 kts 243°
2026-04-19 07:09 32.12086 131.88873 9033 ft 271 kts 243°
2026-04-19 07:09 32.10969 131.86205 8688 ft 271 kts 243°
2026-04-19 07:10 32.10414 131.84882 8519 ft 272 kts 243°
2026-04-19 07:10 32.09573 131.82878 8269 ft 273 kts 243°
2026-04-19 07:10 32.08735 131.80884 8015 ft 268 kts 243°
2026-04-19 07:10 32.07918 131.78937 7756 ft 261 kts 242°
2026-04-19 07:11 32.07119 131.77040 7489 ft 255 kts 242°
2026-04-19 07:11 32.06339 131.75186 7267 ft 250 kts 242°
2026-04-19 07:11 32.05571 131.73367 7023 ft 246 kts 242°
2026-04-19 07:11 32.04816 131.71578 6785 ft 242 kts 242°
2026-04-19 07:12 32.04079 131.69833 6548 ft 239 kts 242°
2026-04-19 07:12 32.03342 131.68090 6308 ft 236 kts 241°
2026-04-19 07:12 32.02619 131.66383 6209 ft 226 kts 241°
2026-04-19 07:12 32.01940 131.64774 6194 ft 215 kts 241°
2026-04-19 07:13 32.01267 131.63189 5898 ft 217 kts 240°
2026-04-19 07:13 32.00585 131.61582 5575 ft 220 kts 240°
2026-04-19 07:13 31.99914 131.60002 5325 ft 215 kts 240°
2026-04-19 07:13 31.99254 131.58442 5007 ft 212 kts 239°
2026-04-19 07:14 31.98594 131.56894 4663 ft 211 kts 239°
2026-04-19 07:14 31.97939 131.55359 4359 ft 207 kts 239°
2026-04-19 07:14 31.97297 131.53856 4101 ft 203 kts 239°
2026-04-19 07:14 31.96666 131.52377 3846 ft 201 kts 239°
2026-04-19 07:15 31.96049 131.50930 3731 ft 194 kts 239°
2026-04-19 07:15 31.95419 131.49559 3620 ft 186 kts 231°
2026-04-19 07:15 31.94882 131.46635 3549 ft 183 kts 271°
2026-04-19 07:16 31.94924 131.45143 3439 ft 188 kts 267°
2026-04-19 07:16 31.94893 131.43567 3273 ft 193 kts 265°
2026-04-19 07:16 31.94819 131.42038 3262 ft 179 kts 262°
2026-04-19 07:16 31.94723 131.40574 3127 ft 183 kts 261°
2026-04-19 07:17 31.94602 131.39043 2901 ft 187 kts 259°
2026-04-19 07:17 31.94323 131.37649 2910 ft 167 kts 245°
2026-04-19 07:17 31.93754 131.36493 2768 ft 161 kts 225°
2026-04-19 07:17 31.92921 131.35657 2550 ft 155 kts 206°
2026-04-19 07:18 31.91941 131.35174 2268 ft 152 kts 190°
2026-04-19 07:18 31.90911 131.35035 1835 ft 151 kts 175°
2026-04-19 07:18 31.89886 131.35235 1311 ft 147 kts 159°
2026-04-19 07:18 31.88979 131.35736 937 ft 143 kts 145°
2026-04-19 07:19 31.88226 131.36479 692 ft 141 kts 128°
2026-04-19 07:19 31.87694 131.37389 704 ft 129 kts 112°
2026-04-19 07:19 31.87381 131.38391 806 ft 132 kts 99°
2026-04-19 07:19 31.87322 131.39487 788 ft 138 kts 82°
2026-04-19 07:20 31.87409 131.40622 581 ft 138 kts 79°
2026-04-19 07:20 31.87496 131.41726 396 ft 133 kts 84°
2026-04-19 07:20 31.87565 131.42814 196 ft 132 kts 83°
2026-04-19 07:20 31.87643 131.43886 37 ft 126 kts 82°
2026-04-19 07:21 31.87705 131.44746 30 ft 81 kts 84°
2026-04-19 07:21 31.87741 131.45233 30 ft 48 kts 84°
2026-04-19 07:21 31.87757 131.45495 30 ft 18 kts 88°
2026-04-19 07:21 31.87674 131.45559 33 ft 16 kts 190°
2026-04-19 07:22 31.87610 131.45535 34 ft 1 kts 216°
2026-04-19 07:22 31.87595 131.45505 34 ft 10 kts 250°
2026-04-19 07:22 31.87584 131.45407 34 ft 13 kts 264°
2026-04-19 07:22 31.87576 131.45290 34 ft 15 kts 266°
2026-04-19 07:23 31.87567 131.45155 34 ft 18 kts 265°
2026-04-19 07:23 31.87555 131.45004 34 ft 20 kts 264°
2026-04-19 07:23 31.87543 131.44837 33 ft 21 kts 265°
2026-04-19 07:23 31.87530 131.44654 33 ft 23 kts 265°
2026-04-19 07:24 31.87517 131.44456 33 ft 25 kts 265°
2026-04-19 07:24 31.87503 131.44249 33 ft 24 kts 266°
2026-04-19 07:24 31.87480 131.44137 33 ft 10 kts 209°
2026-04-19 07:24 31.87406 131.44143 33 ft 12 kts 175°
2026-04-19 07:25 31.87349 131.44149 33 ft 0 kts 175°